Location: Lixville
(37.5770°N, 89.9118°W)
Time: 17:51:07
(UTC+00:00)

ACS3 Solar Sail - Pass Details

Date: 11 October 2024
Orbit: 962 x 1019 km, 97.5° (Epoch: 08 November)

Event Time Altitude Azimuth Distance (km) Brightness Sun altitude
Exits shadow 00:20:56 14° 80° (E) 2,564 3.4 -11.2°
Maximum altitude 00:22:44 15° 61° (ENE) 2,463 3.4 -11.5°
Drops below altitude 10° 00:26:09 10° 28° (NNE) 2,841 4.0 -12.2°
Sets 00:29:52 0° 7° (N) 3,813 4.8 -12.9°
